Location: Unspecified
(0.0000°N, 0.0000°E)
Time: 02:31:31
(UTC+00:00)

CZ-6A DEB - Visible Passes

Search period start: 04 April 2026 00:00
Search period end: 14 April 2026 00:00
Orbit: 782 x 993 km, 89.0° (Epoch: 28 March)

Date Brightness Start Highest point End Pass type
(mag) Time Alt. Az. Time Alt. Az. Time Alt. Az.
4 Apr ? 18:57:05 10° NW 19:00:37 18° W 19:04:15 10° SW visible
5 Apr ? 18:56:19 10° NW 18:59:36 17° W 19:02:58 10° SW visible
6 Apr ? 18:55:36 10° NW 18:58:35 15° W 19:01:39 10° WSW visible
7 Apr ? 18:54:54 10° WNW 18:57:34 14° W 19:00:17 10° WSW visible
8 Apr ? 18:54:19 10° WNW 18:56:33 13° W 18:58:48 10° WSW visible
9 Apr ? 04:21:33 10° ESE 04:23:01 11° E 04:24:29 10° ENE visible
9 Apr ? 18:53:51 10° WNW 18:55:31 11° W 18:57:13 10° WSW visible
10 Apr ? 04:19:47 10° ESE 04:22:01 12° E 04:24:12 10° ENE visible
10 Apr ? 18:53:48 10° W 18:54:29 10° W 18:55:11 10° W visible
11 Apr ? 04:18:15 10° ESE 04:21:00 13° E 04:23:43 10° ENE visible
12 Apr ? 04:16:49 10° ESE 04:19:59 15° E 04:23:06 10° NE visible
13 Apr ? 04:15:27 10° SE 04:18:58 16° E 04:22:24 10° NE visible
